Brevoort Island, Nunavut

3:10 PM ADT on June 25, 2017 (GMT -0300)
Brevoort Island

Weather History for CWOB - July, 2013

Change the Weather History Date:

Thursday, July 18, 2013

  Actual Average Record
Temperature  
Mean Temperature 32 °F -  
Max Temperature 35 °F - - ()
Min Temperature 28 °F - - ()
Degree Days  
Heating Degree Days 34    
Moisture  
Dew Point -    
Average Humidity    
Maximum Humidity    
Minimum Humidity    
Precipitation  
Precipitation 0.00 in - - ()
Sea Level Pressure  
Sea Level Pressure 29.58 in    
Wind  
Wind Speed 16 mph ()    
Max Wind Speed 30 mph    
Max Gust Speed -    
T = Trace of Precipitation, MM = Missing Value Source: Averaged Metar Reports

Daily Weather History Graph

Daily Weather History Graph

Search for Another Location

Airport or City:

Trip Planner

Search our weather history database for the weather conditions in past years. The results will help you decide how hot, cold, wet, or windy it might be!

Date:

Astronomy

Jul. 18, 2013 Rise Set
Actual Time 3:51 AM ADT 10:52 PM ADT
Civil Twilight 1:55 AM ADT 12:50 AM ADT
Nautical Twilight Sun does not set Sun does not set
Astronomical Twilight Sun does not set Sun does not set
Moon 6:26 PM ADT (7/18) 12:12 AM ADT (7/18)
Length of Visible Light 22h 55m
Length of Day
19h 01m
Waxing Gibbous, 77% of the Moon is Illuminated
Jul 18
Waxing Gibbous
Jul 22
Full
Jul 29
Last Quarter
Aug 6
New
Aug 14
First Quarter

Hourly Weather History & Observations

Time (ADT) Temp. Windchill Dew Point Humidity Pressure Visibility Wind Dir Wind Speed Gust Speed Precip Events Conditions
12:00 AM 35.6 °F 28.0 °F - N/A% 29.65 in - East 10.4 mph - N/A   Clear
12:38 AM 33.8 °F 25.8 °F - N/A% 29.55 in - ENE 10.4 mph - N/A   Clear
1:00 AM 33.8 °F 25.3 °F - N/A% 29.65 in - East 11.5 mph - N/A   Clear
2:00 AM 33.8 °F 24.8 °F - N/A% 29.65 in - East 12.7 mph - N/A   Clear
2:03 AM 32.0 °F 22.1 °F - N/A% 29.54 in - East 13.8 mph - N/A Snow Light Snow
2:09 AM 32.0 °F 22.1 °F - N/A% 29.54 in - ENE 13.8 mph - N/A   Clear
2:27 AM 32.0 °F 22.5 °F - N/A% 29.54 in - ENE 12.7 mph - N/A   Clear
2:31 AM 32.0 °F 22.5 °F - N/A% 29.54 in - ENE 12.7 mph - N/A   Clear
2:32 AM 32.0 °F 22.5 °F - N/A% 29.54 in - ENE 12.7 mph - N/A   Clear
3:00 AM 33 °F - - % 29.64 in - ENE 12.7 mph - -  
3:00 AM 33.8 °F 24.3 °F - N/A% 29.64 in - East 13.8 mph - N/A   Clear
3:07 AM 33.8 °F 24.8 °F - N/A% 29.54 in - East 12.7 mph - N/A   Clear
3:38 AM 32.0 °F 22.1 °F - N/A% 29.54 in - ENE 13.8 mph - N/A Snow Light Snow
4:00 AM 32.0 °F 23.0 °F - N/A% 29.65 in - ENE 11.5 mph - N/A Snow Light Snow
4:08 AM 32.0 °F 22.5 °F - N/A% 29.54 in - ENE 12.7 mph - N/A Snow Light Snow
4:17 AM 32.0 °F 23.0 °F - N/A% 29.54 in - ENE 11.5 mph - N/A Snow Light Snow
4:19 AM 32.0 °F 23.0 °F - N/A% 29.54 in - ENE 11.5 mph - N/A   Clear
4:35 AM 32.0 °F 22.1 °F - N/A% 29.54 in - East 13.8 mph - N/A   Clear
4:36 AM 32.0 °F 22.1 °F - N/A% 29.54 in - East 13.8 mph - N/A   Clear
4:44 AM 32.0 °F 22.5 °F - N/A% 29.54 in - ENE 12.7 mph - N/A Snow Light Snow
5:00 AM 32.0 °F 21.2 °F - N/A% 29.65 in - ENE 16.1 mph - N/A Snow Light Snow
5:28 AM 32.0 °F 20.5 °F - N/A% 29.53 in - ENE 18.4 mph - N/A Snow Light Snow
5:31 AM 32.0 °F 21.2 °F - N/A% 29.53 in - ENE 16.1 mph - N/A Snow Light Snow
6:00 AM 30.2 °F 18.1 °F - N/A% 29.64 in - ENE 18.4 mph - N/A Snow Light Snow
6:20 AM 30.2 °F 18.5 °F - N/A% 29.54 in - ENE 17.3 mph - N/A   Clear
6:37 AM 30.2 °F 18.9 °F - N/A% 29.54 in - ENE 16.1 mph - N/A Snow Light Snow
7:00 AM 30.2 °F 18.5 °F - N/A% 29.64 in - ENE 17.3 mph - N/A   Clear
7:48 AM 32.0 °F 20.8 °F - N/A% 29.53 in - NE 17.3 mph - N/A   Clear
8:00 AM 32.0 °F 20.5 °F - N/A% 29.64 in - NE 18.4 mph - N/A   Clear
8:28 AM 32.0 °F 20.5 °F - N/A% 29.53 in - NE 18.4 mph - N/A   Clear
9:00 AM 31 °F - - % 29.65 in - ENE 18.4 mph - -  
9:00 AM 32.0 °F 20.8 °F - N/A% 29.65 in - ENE 17.3 mph - N/A   Clear
9:09 AM 32.0 °F 20.8 °F - N/A% 29.54 in - ENE 17.3 mph - N/A   Clear
9:27 AM 32.0 °F 21.2 °F - N/A% 29.55 in - ENE 16.1 mph - N/A Snow Light Snow
10:00 AM 32.0 °F 20.8 °F - N/A% 29.66 in - ENE 17.3 mph - N/A Snow Light Snow
10:17 AM 32.0 °F 20.1 °F - N/A% 29.55 in - ENE 19.6 mph - N/A   Clear
10:23 AM 32.0 °F 19.8 °F - N/A% 29.55 in - ENE 20.7 mph - N/A   Clear
10:48 AM 32.0 °F 19.5 °F - N/A% 29.55 in - ENE 21.9 mph - N/A   Clear
11:00 AM 32.0 °F 19.5 °F - N/A% 29.66 in - ENE 21.9 mph - N/A   Clear
11:04 AM 32.0 °F 19.5 °F - N/A% 29.55 in - ENE 21.9 mph - N/A Snow Light Snow
12:00 PM 32.0 °F 19.5 °F - N/A% 29.65 in - ENE 21.9 mph - N/A Snow Light Snow
12:30 PM 32.0 °F 19.5 °F - N/A% 29.54 in - ENE 21.9 mph - N/A Snow Light Snow
12:59 PM 30.2 °F 17.1 °F - N/A% 29.54 in - ENE 21.9 mph - N/A Snow Light Snow
1:00 PM 32.0 °F 19.5 °F - N/A% 29.66 in - ENE 21.9 mph - N/A Snow Light Snow
1:22 PM 30.2 °F 17.4 °F - N/A% 29.55 in - ENE 20.7 mph - N/A Snow Light Snow
1:42 PM 30.2 °F 16.5 °F - N/A% 29.54 in - NE 24.2 mph - N/A   Clear
2:00 PM 30.2 °F 16.8 °F - N/A% 29.66 in - NE 23.0 mph - N/A   Clear
2:55 PM 30.2 °F 15.9 °F - N/A% 29.53 in - NE 26.5 mph - N/A Snow Light Snow
3:00 PM 28.4 °F 13.5 °F - N/A% 29.65 in - NE 26.5 mph - N/A Snow Light Snow
3:18 PM 30.2 °F 16.2 °F - N/A% 29.53 in - ENE 25.3 mph - N/A   Clear
4:00 PM 28.4 °F 13.3 °F - N/A% 29.66 in - ENE 27.6 mph - N/A   Clear
4:45 PM 28.4 °F 12.7 °F - N/A% 29.54 in - ENE 29.9 mph - N/A Snow Light Snow
5:00 PM 28.4 °F 12.7 °F - N/A% 29.66 in - NE 29.9 mph - N/A Snow Light Snow
5:06 PM 28.4 °F 13.0 °F - N/A% 29.54 in - NE 28.8 mph - N/A   Clear
5:35 PM 28.4 °F 14.1 °F - N/A% 29.55 in - NE 24.2 mph - N/A Snow Light Snow
6:00 PM 28.4 °F 14.1 °F - N/A% 29.66 in - NE 24.2 mph - N/A Snow Light Snow
6:09 PM 28.4 °F 14.4 °F - N/A% 29.55 in - NE 23.0 mph - N/A   Clear
6:59 PM 28.4 °F 13.5 °F - N/A% 29.54 in - NE 26.5 mph - N/A Snow Light Snow
7:00 PM 28.4 °F 13.3 °F - N/A% 29.66 in - NE 27.6 mph - N/A Snow Light Snow
7:11 PM 28.4 °F 13.5 °F - N/A% 29.54 in - NE 26.5 mph - N/A   Clear
7:18 PM 28.4 °F 13.5 °F - N/A% 29.54 in - NE 26.5 mph - N/A Snow Light Snow
8:00 PM 30.2 °F 16.2 °F - N/A% 29.67 in - NE 25.3 mph - N/A Snow Light Snow
9:00 PM 30 °F - - % 29.68 in - NE 25.3 mph - -  
9:00 PM 30.2 °F 16.2 °F - N/A% 29.68 in - NE 25.3 mph - N/A Snow Light Snow
10:00 PM 30.2 °F 16.8 °F - N/A% 29.69 in - NE 23.0 mph - N/A Snow Light Snow
10:16 PM 30.2 °F 16.5 °F - N/A% 29.56 in - NE 24.2 mph - N/A   Clear
10:21 PM 30.2 °F 16.8 °F - N/A% 29.56 in - NE 23.0 mph - N/A Snow Light Snow
10:36 PM 30.2 °F 16.2 °F - N/A% 29.56 in - NE 25.3 mph - N/A   Clear
10:56 PM 30.2 °F 16.2 °F - N/A% 29.55 in - NE 25.3 mph - N/A Snow Light Snow
11:00 PM 30.2 °F 16.8 °F - N/A% 29.67 in - NE 23.0 mph - N/A Snow Light Snow
11:12 PM 30.2 °F 16.2 °F - N/A% 29.55 in - NE 25.3 mph - N/A   Clear
11:27 PM 30.2 °F 16.2 °F - N/A% 29.55 in - NE 25.3 mph - N/A Snow Light Snow
11:45 PM 30.2 °F 15.9 °F - N/A% 29.54 in - NE 26.5 mph - N/A   Clear
11:46 PM 30.2 °F 16.2 °F - N/A% 29.54 in - NE 25.3 mph - N/A Snow Light Snow